CW8822 Caguas PR US current weather conditions

sailwx.info

Wind from 040 at 0 knots gusting 5

Air temperature 26.7° C
Dewpoint 23.7° C

Last reported at 2014-Aug-21 11:48 UTC.
Time now 2014-Aug-21 12:08 UTC

Location: N 18°12' W 066°01'.
View on Google Maps.

See reports from other nearby stations

  
Tides and Currents Weather Stations Pressure Air Temp Water Temp Dewpoint Dewpoint Depression Visibility Wind Speed Wind Dir Waves Ship Positions
date/time (UTC)wind fromknots sea level pressurealtimeterstation pressurevisibilityair tempwater tempwave heightnotes
2014-Aug-21 11:48 040 0 gusting 5 26.7
2014-Aug-21 11:32 024 26.1
2014-Aug-21 11:17 042 1 gusting 5 25.0
2014-Aug-21 11:01 038 25.0
2014-Aug-21 10:47 055 24.4
2014-Aug-21 10:32 055 24.4
2014-Aug-21 10:16 020 0 gusting 3 24.4
2014-Aug-21 10:02 355 24.4
2014-Aug-21 09:47 312 24.4
2014-Aug-21 09:31 005 24.4
2014-Aug-21 09:16 005 24.4
2014-Aug-21 09:02 005 24.4
2014-Aug-21 08:46 005 25.0
2014-Aug-21 08:31 005 25.0
2014-Aug-21 08:17 346 25.0
2014-Aug-21 08:01 346 0 gusting 4 24.4
2014-Aug-21 07:45 059 0 gusting 2 25.0
2014-Aug-21 07:31 059 25.0
2014-Aug-21 07:16 059 24.4
2014-Aug-21 07:00 059 24.4
2014-Aug-21 06:46 059 24.4
2014-Aug-21 06:31 059 24.4
2014-Aug-21 06:15 059 24.4
2014-Aug-21 06:01 059 24.4
2014-Aug-21 05:46 059 24.4
2014-Aug-21 05:30 059 25.0
2014-Aug-21 05:15 059 25.0
2014-Aug-21 05:01 059 25.0
2014-Aug-21 04:45 059 25.0
2014-Aug-21 04:30 059 25.0
2014-Aug-21 04:16 059 25.0
2014-Aug-21 04:00 059 25.0
2014-Aug-21 03:45 059 25.0
2014-Aug-21 03:30 059 25.0
2014-Aug-21 03:14 059 25.0
2014-Aug-21 03:00 059 25.0
2014-Aug-21 02:44 059 25.6
2014-Aug-21 02:30 059 25.6
2014-Aug-21 02:15 059 25.6
2014-Aug-21 02:00 059 25.6
2014-Aug-21 01:44 059 25.6
2014-Aug-21 01:29 059 25.6
2014-Aug-21 01:15 059 25.6
2014-Aug-21 00:59 059 25.6
2014-Aug-21 00:43 059 26.1
2014-Aug-21 00:29 059 26.1
2014-Aug-21 00:14 059 26.1
2014-Aug-20 23:58 059 26.1
2014-Aug-20 23:44 059 26.1
2014-Aug-20 23:29 059 26.7
2014-Aug-20 23:13 059 26.7
2014-Aug-20 22:58 052 26.7
2014-Aug-20 22:44 053 0 gusting 6 27.2
2014-Aug-20 22:29 071 0 gusting 6 27.2
2014-Aug-20 22:13 145 0 gusting 6 27.8
2014-Aug-20 21:58 088 0 gusting 9 27.8
2014-Aug-20 21:43 076 2 gusting 8 28.3
2014-Aug-20 21:29 051 4 gusting 12 28.3
2014-Aug-20 21:12 096 0 gusting 8 29.4
2014-Aug-20 20:58 063 1 gusting 7 30.0
2014-Aug-20 20:43 042 2 gusting 6 30.0
2014-Aug-20 20:27 065 1 gusting 6 30.0
2014-Aug-20 20:13 044 3 gusting 10 30.6
2014-Aug-20 19:58 085 0 gusting 6 30.0
2014-Aug-20 19:42 025 0 gusting 11 30.6
2014-Aug-20 19:28 144 1 gusting 10 30.6
2014-Aug-20 19:13 066 3 gusting 9 30.0
2014-Aug-20 18:57 107 2 gusting 6 30.0
2014-Aug-20 18:43 081 2 gusting 13 30.6
2014-Aug-20 18:27 082 1 gusting 7 30.6
2014-Aug-20 18:12 029 4 gusting 14 30.0
2014-Aug-20 17:58 024 1 gusting 11 30.6
2014-Aug-20 17:43 089 0 gusting 8 30.0
2014-Aug-20 17:27 063 1 gusting 6 30.0
2014-Aug-20 17:12 161 1 gusting 7 29.4
2014-Aug-20 16:58 142 1 gusting 6 29.4
2014-Aug-20 16:41 108 1 gusting 8 30.0
2014-Aug-20 16:27 137 0 gusting 7 29.4
2014-Aug-20 16:12 062 3 gusting 9 29.4
2014-Aug-20 15:57 086 1 gusting 9 29.4
2014-Aug-20 15:42 076 3 gusting 8 29.4
2014-Aug-20 15:26 103 1 gusting 6 30.0
2014-Aug-20 15:11 153 2 gusting 8 28.9
2014-Aug-20 14:57 119 2 gusting 10 28.9
2014-Aug-20 14:41 142 4 gusting 9 29.4
2014-Aug-20 14:26 192 0 gusting 7 29.4
2014-Aug-20 14:12 023 0 gusting 6 28.3
2014-Aug-20 13:55 069 0 gusting 4 28.3
2014-Aug-20 13:26 061 1 gusting 8 27.8
2014-Aug-20 13:10 094 0 gusting 5 27.8
2014-Aug-20 12:56 031 27.2
2014-Aug-20 12:40 032 26.1
2014-Aug-20 12:26 144 24.4
2014-Aug-20 12:10 144 23.9
2014-Aug-20 11:56 144 0 gusting 2 23.3
2014-Aug-20 11:40 144 23.3
2014-Aug-20 11:25 144 23.3
2014-Aug-20 11:10 144 23.3
2014-Aug-20 10:55 145 23.3
2014-Aug-20 10:40 178 22.8
2014-Aug-20 10:25 162 0 gusting 2 22.8
2014-Aug-20 10:09 128 22.8
2014-Aug-20 09:54 113 23.3
2014-Aug-20 09:39 098 1 gusting 6 22.8
2014-Aug-20 09:25 225 23.3
2014-Aug-20 09:09 225 23.3
2014-Aug-20 08:54 225 23.3
2014-Aug-20 08:40 225 23.3
2014-Aug-20 08:23 225 0 gusting 4 23.3
2014-Aug-20 08:09 226 0 gusting 3 23.3
2014-Aug-20 07:54 226 0 gusting 2 23.3
2014-Aug-20 07:38 225 0 gusting 1 23.3
2014-Aug-20 07:24 225 22.8
2014-Aug-20 07:09 220 2 gusting 4 23.3
2014-Aug-20 06:53 228 2 gusting 5 23.3
2014-Aug-20 06:39 020 23.3
2014-Aug-20 06:23 020 23.3
2014-Aug-20 06:08 020 23.3
2014-Aug-20 05:54 020 23.3
2014-Aug-20 05:38 064 23.3
2014-Aug-20 05:22 183 23.3
2014-Aug-20 05:08 183 0 gusting 3 23.3
2014-Aug-20 04:53 065 0 gusting 1 23.3
2014-Aug-20 04:37 065 23.9
2014-Aug-20 04:23 034 0 gusting 3 23.9
2014-Aug-20 04:08 033 0 gusting 1 23.9
2014-Aug-20 03:52 033 23.9
2014-Aug-20 03:38 033 24.4
2014-Aug-20 03:22 033 24.4
2014-Aug-20 03:07 033 24.4
2014-Aug-20 02:52 033 1 gusting 3 25.6
2014-Aug-20 02:37 033 25.6
2014-Aug-20 02:22 033 25.6
2014-Aug-20 02:07 033 0 gusting 2 25.6
2014-Aug-20 01:52 033 0 gusting 4 25.6
2014-Aug-20 01:38 051 0 gusting 3 25.6
2014-Aug-20 01:21 051 1 gusting 6 25.6
2014-Aug-20 01:07 005 25.6
2014-Aug-20 00:51 019 1 gusting 5 25.6
2014-Aug-20 00:37 039 0 gusting 4 25.6
2014-Aug-20 00:22 043 0 gusting 4 25.6
2014-Aug-20 00:06 043 26.1
2014-Aug-19 23:51 044 26.1
2014-Aug-19 23:37 044 26.1
2014-Aug-19 23:22 044 0 gusting 5 26.1
2014-Aug-19 23:07 020 0 gusting 5 26.7
2014-Aug-19 22:51 045 0 gusting 6 26.7
2014-Aug-19 22:36 084 1 gusting 8 27.2
2014-Aug-19 22:22 033 5 gusting 10 27.2
2014-Aug-19 22:07 026 4 gusting 12 27.8
2014-Aug-19 21:51 311 4 gusting 12 27.8
2014-Aug-19 21:36 292 5 gusting 11 28.3
2014-Aug-19 21:05 035 3 gusting 8 29.4
2014-Aug-19 20:51 034 4 gusting 10 28.9
2014-Aug-19 20:36 021 5 gusting 10 28.9
2014-Aug-19 20:21 044 6 gusting 11 29.4
2014-Aug-19 19:51 014 4 gusting 9 29.4
2014-Aug-19 19:35 012 3 gusting 11 29.4
2014-Aug-19 19:20 312 3 gusting 9 30.0
2014-Aug-19 19:06 030 29.4
2014-Aug-19 18:50 010 3 gusting 9 28.3
2014-Aug-19 18:35 005 3 gusting 10 27.8
2014-Aug-19 18:20 342 27.2
2014-Aug-19 18:05 344 3 gusting 14 27.2
2014-Aug-19 17:49 010 4 gusting 7 30.0
2014-Aug-19 17:35 036 5 gusting 9 30.0
2014-Aug-19 17:20 360 2 gusting 8 30.0
2014-Aug-19 17:05 034 1 gusting 5 29.4
2014-Aug-19 16:49 005 1 gusting 6 30.6
2014-Aug-19 16:35 355 5 gusting 9 28.9
2014-Aug-19 16:19 339 1 gusting 6 30.0
2014-Aug-19 15:50 040 5 gusting 10 31.1
2014-Aug-19 15:34 039 3 gusting 9 31.1
2014-Aug-19 15:19 065 2 gusting 8 31.1
2014-Aug-19 15:05 100 3 gusting 12 31.1
2014-Aug-19 14:49 119 1 gusting 7 30.6
2014-Aug-19 14:34 360 4 gusting 10 30.6
2014-Aug-19 14:20 051 0 gusting 4 30.6
2014-Aug-19 14:03 054 2 gusting 5 30.6
2014-Aug-19 13:49 048 29.4
2014-Aug-19 13:33 054 0 gusting 4 28.9
2014-Aug-19 13:19 054 1 gusting 4 28.3
2014-Aug-19 13:03 290 0 gusting 4 27.2
2014-Aug-19 12:48 290 0 gusting 2 26.7
2014-Aug-19 12:34 290 26.7
2014-Aug-19 12:18 290 26.1
2014-Aug-19 12:03 290 25.6